Location: Molveno
(46.1500°N, 10.9667°E)
Time: 16:32:37
(UTC+00:00)

USA 267 - Pass Details

Date: 05 July 2020
Orbit: 1102 x 1106 km, 123.0° (Epoch: 09 August)

Event Time Altitude Azimuth Distance (km) Brightness Sun altitude
Exits shadow 23:21:16 30° 213° (SSW) 1,844 4.0 -21.2°
Maximum altitude 23:22:23 32° 232° (SW) 1,787 4.0 -21.2°
Drops below altitude 10° 23:28:08 10° 294° (WNW) 2,963 5.8 -21.2°
Sets 23:30:56 0° 304° (WNW) 3,925 6.6 -21.2°
